FW5260 Weather Reports


time (UTC)temp
F
wind
direction
speed
knots
gust
knots
rain 1hr
in
rain 24hr
in
rain mn
in
humidity
%
barometer
mb
20260506210054 52 88 0.9 3.5 0.02 0.06 1.18 97 1009.6
20260506205817 52 151 2.6 5.2 0.02 0.06 1.18 97 1009.8
20260506205542 52 13 0.0 5.2 0.02 0.06 1.18 97 1009.7
20260506204557 52 163 1.7 4.3 0.02 0.06 1.18 97 1009.7
20260506204054 52 6 0.0 3.5 0.02 0.06 1.18 97 1009.6
20260506203556 53 258 0.9 2.6 0.02 0.06 1.18 97 1009.6
20260506203549 53 266 1.7 1.7 0.00 0.04 1.17 97 1009.8
20260506203318 53 224 0.0 1.7 0.00 0.04 1.17 97 1009.7
20260506202054 53 243 0.0 2.6 0.00 0.04 1.17 96 1009.7
20260506201815 53 116 0.0 2.6 0.00 0.04 1.17 96 1009.7
20260506201547 53 171 1.7 3.5 0.00 0.04 1.17 96 1009.6
20260506200556 53 162 0.9 3.5 0.00 0.04 1.17 96 1009.5
20260506200055 53 290 2.6 3.5 0.00 0.04 1.17 95 1009.4
20260506195814 53 4 2.6 3.5 0.00 0.04 1.17 95 1009.0
20260506195535 53 324 1.7 4.3 0.00 0.04 1.17 94 1009.2
20260506194557 53 277 0.9 4.3 0.00 0.04 1.17 93 1009.0
20260506194053 54 15 0.9 3.5 0.00 0.04 1.17 93 1008.8
20260506193556 53 237 0.9 4.3 0.00 0.04 1.17 93 1008.8
20260506193549 53 107 1.7 4.3 0.00 0.04 1.17 93 1008.8
20260506193257 54 5 0.9 5.2 0.00 0.04 1.17 93 1008.7
20260506192053 54 22 3.5 5.2 0.00 0.04 1.17 93 1008.6
20260506191555 53 306 2.6 4.3 0.00 0.04 1.17 94 1008.5
20260506191053 53 203 1.7 4.3 0.00 0.04 1.17 95 1008.7
20260506190555 53 267 1.7 4.3 0.00 0.04 1.17 96 1008.6
20260506190053 53 177 0.0 3.5 0.00 0.04 1.17 97 1008.3
20260506185814 53 350 3.5 4.3 0.00 0.04 1.17 97 1008.2
20260506185319 53 201 0.0 4.3 0.01 0.04 1.17 97 1007.9
20260506184559 53 221 0.9 3.5 0.02 0.04 1.17 97 1007.9
20260506184317 53 300 0.9 2.6 0.04 0.04 1.17 97 1007.9
20260506183555 53 238 1.7 2.6 0.04 0.04 1.17 96 1007.9
20260506183053 53 137 0.0 5.2 0.04 0.04 1.17 96 1007.9
20260506182558 53 319 1.7 5.2 0.04 0.04 1.17 96 1007.6
20260506182053 53 267 2.6 4.3 0.04 0.04 1.17 96 1007.6
20260506182039 53 246 0.0 4.3 0.04 0.04 1.17 95 1007.6
20260506181053 53 255 4.3 4.3 0.04 0.04 1.17 93 1007.9
20260506181007 54 232 1.7 4.3 0.04 0.04 1.17 90 1006.9
20260506180901 54 185 1.7 2.6 0.04 0.04 1.17 92 1007.6
20260506180054 54 59 0.9 3.5 0.04 0.04 1.17 91 1007.3
20260506175053 55 199 0.9 4.3 0.03 0.03 1.16 89 1007.0
20260506174556 56 331 1.7 4.3 0.02 0.02 1.16 85 1007.0
20260506174057 56 158 0.9 3.5 0.00 0.00 1.13 82 1007.1
20260506173555 56 17 0.9 2.6 0.00 0.00 1.13 84 1007.1
20260506173053 56 233 0.0 3.5 0.00 0.00 1.13 82 1006.9
20260506172827 57 289 1.7 4.3 0.00 0.00 1.13 81 1006.9
20260506172310 57 145 1.7 4.3 0.00 0.00 1.13 79 1006.9
20260506171555 57 20 1.7 6.1 0.00 0.00 1.13 79 1006.8
20260506171320 57 180 0.9 6.1 0.00 0.00 1.13 78 1006.6
20260506170823 57 263 0.9 6.1 0.00 0.00 1.13 76 1006.5
20260506170053 58 251 1.7 6.1 0.00 0.00 1.13 77 1006.4
20260506165817 58 249 1.7 6.1 0.00 0.00 1.13 76 1006.3
20260506165320 58 138 3.5 6.1 0.00 0.00 1.13 77 1006.3
20260506164557 58 325 3.5 6.1 0.00 0.00 1.13 76 1006.3
20260506164053 58 244 2.6 5.2 0.00 0.00 1.13 76 1006.3
20260506164044 58 253 1.7 7.0 0.00 0.00 1.13 76 1006.0
20260506163054 58 307 3.5 7.0 0.00 0.00 1.13 75 1006.2
20260506162818 58 25 1.7 7.8 0.00 0.00 1.13 76 1006.3
20260506162054 57 20 1.7 7.8 0.00 0.00 1.13 76 1006.2
20260506161820 58 200 1.7 6.1 0.00 0.00 1.13 78 1006.1
20260506161052 58 78 5.2 9.6 0.00 0.00 1.13 77 1006.1
20260506161043 57 249 2.6 9.6 0.00 0.00 1.13 77 1006.0
20260506160053 57 258 1.7 7.0 0.00 0.00 1.13 78 1006.0
20260506155555 57 247 1.7 7.0 0.00 0.00 1.13 79 1006.0
20260506155053 57 348 1.7 9.6 0.00 0.00 1.13 79 1006.1
20260506154559 57 177 3.5 9.6 0.00 0.00 1.13 80 1006.1
20260506154056 57 202 2.6 9.6 0.00 0.00 1.13 78 1006.3
20260506154018 57 299 4.3 8.7 0.00 0.00 1.13 78 1005.9
20260506153555 57 346 2.6 7.0 0.00 0.00 1.13 79 1006.1
20260506152553 57 314 3.5 10.4 0.00 0.00 1.13 79 1006.1
20260506152053 57 77 3.5 10.4 0.00 0.00 1.13 78 1006.1
20260506151553 57 228 2.6 8.7 0.00 0.00 1.13 74 1007.1
20260506151057 58 147 1.7 10.4 0.00 0.00 1.13 73 1007.2
20260506150554 58 174 1.7 10.4 0.00 0.00 1.13 73 1007.2
20260506150051 58 10 3.5 7.0 0.00 0.00 1.13 73 1007.2
20260506145552 58 327 0.9 9.6 0.00 0.00 1.13 73 1007.2
20260506145545 58 219 0.9 9.6 0.00 0.00 1.13 73 1007.2
20260506144519 59 61 0.9 0.0 0.00 0.00 1.13 72 1007.2
20260506144129 59 57 0.9 5.2 0.00 0.00 1.13 73 1007.2
20260506143629 58 150 0.9 7.8 0.00 0.00 1.13 75 1007.3
20260506143128 58 314 0.9 7.8 0.00 0.00 1.13 76 1007.3
20260506142629 58 236 0.9 7.0 0.00 0.00 1.13 75 1007.2
20260506142352 58 261 0.0 8.7 0.00 0.00 1.13 75 1007.2
20260506141629 58 133 0.0 8.7 0.00 0.00 1.13 76 1007.1
20260506141128 58 191 0.9 6.1 0.00 0.00 1.13 76 1007.0
20260506140626 58 127 0.9 6.1 0.00 0.00 1.13 76 1007.1
20260506140611 58 277 0.0 4.3 0.00 0.00 1.13 77 1007.2
20260506135626 58 320 0.9 7.8 0.00 0.00 1.13 78 1007.1
20260506135618 58 297 0.9 7.8 0.00 0.00 1.13 79 1007.2
20260506134627 58 289 0.9 5.2 0.00 0.00 1.13 80 1007.3
20260506134349 57 328 0.9 5.2 0.00 0.00 1.13 79 1007.4
20260506133709 57 39 0.9 0.0 0.00 0.00 1.13 78 1007.5
20260506133443 58 39 0.9 0.0 0.00 0.00 1.13 78 1007.5
20260506133224 58 39 0.9 0.0 0.00 0.00 1.13 78 1007.5
20260506132817 58 311 0.9 6.1 0.00 1.13 1.13 80 1007.6
20260506132320 58 41 0.9 6.1 0.00 1.13 1.13 80 1007.5
20260506131545 57 328 0.0 3.5 0.00 1.13 1.13 85 1007.6
20260506131041 56 352 0.0 3.5 0.00 1.13 1.13 86 1007.6
20260506130319 56 328 0.0 2.6 0.00 1.13 1.13 87 1007.5
20260506130045 55 234 0.0 2.6 0.00 1.13 1.13 88 1007.5
20260506125319 55 168 0.0 0.0 0.01 1.13 1.13 89 1007.5
20260506124819 55 33 0.0 2.6 0.02 1.13 1.13 91 1007.4
20260506122816 52 25 0.0 0.0 0.94 1.13 1.13 93 1007.3
20260506122543 52 18 0.0 0.0 0.94 1.13 1.13 92 1007.4
20260506121819 51 104 0.9 8.7 0.94 1.13 1.13 93 1007.3
20260506121317 51 78 0.9 8.7 0.94 1.13 1.13 93 1007.2
20260506120816 51 53 0.0 5.2 0.94 1.13 1.13 93 1007.1
20260506120319 50 185 0.0 2.6 0.94 1.13 1.13 93 1006.8
20260506115816 50 69 0.0 1.7 0.94 1.13 1.13 93 1006.5
20260506115318 49 345 2.6 5.2 0.94 1.12 1.13 99 1006.4
20260506114318 48 307 1.7 7.0 0.83 0.98 0.99 98 1006.3
20260506114048 48 266 1.7 7.0 0.75 0.80 0.80 98 1008.1
20260506112537 56 294 1.7 5.2 0.18 0.18 0.18 99 1006.3
20260506111814 56 194 0.9 5.2 0.18 0.18 0.18 99 1006.3
20260506111538 56 182 1.7 4.3 0.18 0.18 0.18 99 1006.5
20260506110811 56 279 1.7 1.7 0.18 0.18 0.18 99 1006.3
20260506110537 56 327 0.0 4.3 0.18 0.18 0.18 99 1006.3
20260506105811 56 281 0.0 4.3 0.18 0.18 0.18 99 1006.4
20260506104814 56 156 2.6 5.2 0.17 0.17 0.17 98 1006.5
20260506104540 56 159 1.7 7.8 0.16 0.16 0.16 97 1006.3
20260506103811 56 170 4.3 7.8 0.05 0.05 0.08 96 1006.6
20260506103537 56 129 2.6 12.2 0.00 0.00 0.00 94 1006.3
20260506102811 57 157 5.2 12.2 0.00 0.00 0.00 93 1006.3
20260506102537 57 173 6.1 12.2 0.00 0.00 0.00 93 1006.1
20260506101313 57 182 4.3 11.3 0.00 0.00 0.00 93 1006.5
20260506101035 57 56 1.7 9.6 0.00 0.00 0.00 93 1006.3
20260506100312 57 167 1.7 9.6 0.00 0.00 0.00 93 1006.6
20260506095811 57 157 7.0 9.6 0.00 0.00 0.00 94 1006.5
20260506094811 56 158 7.0 12.2 0.00 0.00 0.00 94 1006.7
20260506094540 56 116 4.3 12.2 0.00 0.00 0.00 94 1006.5
20260506093313 56 190 2.6 7.8 0.00 0.00 0.00 95 1006.4
20260506092811 56 176 3.5 7.8 0.00 0.00 0.00 95 1006.5
20260506091810 56 157 5.2 7.8 0.00 0.00 0.00 95 1006.7
20260506091315 56 158 5.2 7.0 0.00 0.00 0.00 96 1006.5
20260506091029 56 177 2.6 10.4 0.00 0.00 0.00 96 1006.6
20260506090312 56 47 2.6 10.4 0.00 0.00 0.00 95 1006.6
20260506085811 56 161 6.1 8.7 0.00 0.00 0.00 95 1006.5
20260506085529 56 158 3.5 8.7 0.00 0.00 0.00 95 1006.5
20260506085038 56 202 4.3 9.6 0.00 0.00 0.00 96 1006.4
20260506084323 56 180 3.5 11.3 0.00 0.00 0.00 95 1006.4
20260506083814 55 189 7.0 9.6 0.00 0.00 0.00 96 1006.6
20260506083313 55 159 4.3 7.8 0.00 0.00 0.00 97 1006.6
20260506082811 56 180 5.2 11.3 0.00 0.00 0.00 97 1006.6
20260506082312 55 169 3.5 11.3 0.00 0.00 0.00 97 1006.7
20260506081814 55 172 5.2 11.3 0.00 0.00 0.00 98 1006.8
20260506081536 55 159 3.5 10.4 0.00 0.00 0.00 99 1006.5
20260506080810 55 158 8.7 10.4 0.00 0.00 0.00 99 1006.7
20260506080315 55 198 2.6 5.2 0.00 0.00 0.00 99 1006.3
20260506073312 55 176 0.9 3.5 0.00 0.00 0.00 99 1006.8
20260506072533 55 120 0.9 3.5 0.00 0.00 0.00 99 1007.1
20260506071313 55 178 1.7 3.5 0.00 0.00 0.00 98 1007.1
20260506070534 55 207 2.6 5.2 0.00 0.00 0.00 98 1007.1
20260506062036 55 183 1.7 3.5 0.00 0.00 0.00 99 1007.1
20260506061313 55 210 2.6 3.5 0.00 0.00 0.00 99 1007.3
20260506061033 54 185 1.7 4.3 0.00 0.00 0.00 99 1007.1
20260506051315 53 259 1.7 3.5 0.00 0.00 0.00 99 1007.2
20260506050810 53 283 3.5 3.5 0.00 0.00 0.00 99 1007.5
20260506044811 53 321 1.7 3.5 0.00 0.00 0.00 99 1007.8
20260506044312 53 287 1.7 3.5 0.00 0.00 0.00 99 1007.9
20260506044038 53 268 1.7 4.3 0.00 0.00 0.00 99 1007.6
20260506043529 53 275 1.7 4.3 0.00 0.00 0.00 99 1007.9
20260506042811 53 312 2.6 3.5 0.00 0.01 0.00 99 1007.5
20260506042315 53 276 0.9 3.5 0.00 0.01 0.00 99 1007.9
20260506041811 53 129 0.9 3.5 0.00 0.01 0.00 99 1007.9
20260506041312 53 268 0.9 3.5 0.00 0.02 0.00 99 1007.9
20260506041032 53 333 0.9 3.5 0.00 0.02 0.00 99 1007.8
20260506040530 53 246 3.5 3.5 0.00 0.02 0.00 99 1008.0
20260506040039 53 70 0.0 3.5 0.00 0.02 0.00 99 1007.9
20260506034312 53 202 0.9 3.5 0.00 0.02 0.00 99 1008.0
20260506034032 53 296 1.7 3.5 0.00 0.02 0.00 99 1007.8
20260506033312 53 2 0.9 3.5 0.00 0.02 0.00 99 1008.2
20260506032810 53 326 1.7 3.5 0.00 0.02 0.00 99 1008.0
20260506032315 53 269 1.7 3.5 0.00 0.02 0.00 99 1008.1
20260506031814 53 254 0.0 3.5 0.00 0.02 0.00 99 1008.3
20260506031312 53 174 1.7 3.5 0.00 0.02 0.00 99 1008.1
20260506030811 53 245 1.7 2.6 0.00 0.02 0.00 99 1008.4
20260506030312 53 275 1.7 3.5 0.00 0.02 0.00 99 1008.5
20260506025811 53 269 1.7 3.5 0.00 0.02 0.00 99 1008.7
20260506025312 53 256 2.6 3.5 0.00 0.02 0.00 99 1008.7
20260506024810 53 282 1.7 2.6 0.00 0.02 0.00 99 1008.9
20260506024312 53 299 1.7 2.6 0.00 0.02 0.00 99 1009.0
20260506023811 53 269 0.0 2.6 0.00 0.02 0.00 99 1009.0
20260506023312 53 317 0.9 2.6 0.00 0.02 0.00 99 1009.1
20260506023028 53 244 1.7 3.5 0.00 0.02 0.00 99 1009.0
20260506022312 53 262 1.7 3.5 0.00 0.02 0.00 99 1009.3
20260506021814 53 304 1.7 3.5 0.00 0.02 0.00 99 1009.4
20260506021532 53 236 0.9 3.5 0.00 0.02 0.00 99 1009.3
20260506021036 53 288 1.7 3.5 0.00 0.02 0.00 99 1009.2
20260506020312 53 251 1.7 2.6 0.00 0.02 0.00 99 1009.2
20260506015312 53 281 1.7 2.6 0.00 0.02 0.00 99 1009.2
20260506014811 53 289 1.7 2.6 0.00 0.02 0.00 99 1009.4
20260506014312 53 275 1.7 2.6 0.00 0.02 0.00 99 1009.4
20260506014032 53 264 1.7 2.6 0.00 0.02 0.00 99 1009.4
20260506013312 53 237 1.7 2.6 0.00 0.02 0.00 99 1009.3
20260506012532 53 263 1.7 3.5 0.00 0.02 0.00 99 1009.2
20260506011312 52 267 1.7 2.6 0.00 0.02 0.00 99 1009.6
20260506010811 52 281 1.7 2.6 0.00 0.02 0.00 99 1009.6
20260506005312 52 259 1.7 3.5 0.00 0.02 0.00 99 1009.9
20260506004811 52 246 0.9 3.5 0.00 0.02 0.00 99 1010.0
20260506004312 52 242 0.0 2.6 0.00 0.02 0.00 99 1009.9
20260506004036 52 283 1.7 2.6 0.00 0.02 0.00 99 1010.2
20260506003312 52 260 0.0 2.6 0.00 0.02 0.00 99 1010.2
20260506003037 52 255 1.7 2.6 0.00 0.02 0.00 99 1010.1
20260506001811 53 254 1.7 3.5 0.00 0.02 0.00 99 1010.1
20260506001313 53 269 1.7 3.5 0.00 0.02 0.00 99 1010.3
20260506000539 53 276 1.7 2.6 0.00 0.02 0.00 99 1010.2
20260505235532 53 268 1.7 3.5 0.00 0.02 0.00 99 1010.2
20260505234813 53 240 0.9 3.5 0.00 0.02 0.00 99 1010.3
20260505234316 52 316 0.0 3.5 0.00 0.02 0.00 99 1010.4
20260505233809 52 204 1.7 3.5 0.00 0.02 0.00 99 1010.5
20260505233536 52 286 0.9 3.5 0.00 0.02 0.00 99 1010.4
20260505232311 52 299 1.7 2.6 0.00 0.02 0.00 99 1010.5
20260505231809 52 279 0.9 1.7 0.00 0.02 0.00 99 1010.5
20260505231311 52 275 0.0 1.7 0.00 0.02 0.00 99 1010.6
20260505231032 52 256 0.0 1.7 0.00 0.02 0.00 99 1010.6
20260505230311 53 267 0.0 1.7 0.00 0.02 0.00 99 1010.8
20260505230031 52 272 0.9 2.6 0.00 0.02 0.00 99 1010.9
20260505225534 53 290 1.7 3.5 0.00 0.02 0.00 99 1010.9
20260505224810 53 315 0.9 3.5 0.00 0.02 0.00 99 1010.9
20260505224311 53 280 0.9 3.5 0.00 0.02 0.00 99 1011.1
20260505223810 53 279 0.9 2.6 0.00 0.02 0.00 99 1010.9
20260505223530 53 249 0.9 2.6 0.00 0.02 0.00 99 1010.9
20260505223035 53 282 0.0 3.5 0.00 0.02 0.00 99 1011.1
20260505222530 53 285 0.9 3.5 0.00 0.02 0.00 99 1011.1
20260505221813 52 245 0.0 3.5 0.00 0.02 0.00 99 1010.9
20260505215810 53 240 0.0 2.6 0.00 0.02 0.02 99 1011.0
20260505215540 53 204 0.9 2.6 0.00 0.02 0.02 99 1011.1
20260505215031 53 250 1.7 2.6 0.00 0.02 0.02 99 1011.2
20260505213809 53 278 0.9 2.6 0.00 0.02 0.02 99 1011.2
20260505213312 53 261 1.7 2.6 0.00 0.02 0.02 99 1011.4
20260505212813 53 262 0.0 2.6 0.00 0.02 0.02 99 1011.6
20260505212532 53 275 1.7 2.6 0.00 0.02 0.02 99 1011.5
20260505212041 53 259 1.7 2.6 0.00 0.02 0.02 99 1011.6
20260505211534 53 246 1.7 2.6 0.00 0.02 0.02 99 1011.9
20260505211035 53 102 0.0 2.6 0.00 0.02 0.02 99 1011.8
20260505210312 53 98 0.0 2.6 0.00 0.02 0.02 99 1011.7